Location: Alsip
(41.6689°N, 87.7387°W)
Time: 14:25:32
(UTC+00:00)

BREEZE-M DEB (TANK) - Pass Details

Date: 14 July 2020
Orbit: 308 x 15751 km, 49.4° (Epoch: 04 August)

Event Time Altitude Azimuth Distance (km) Brightness Sun altitude
Rises 03:19:55 0° 299° (WNW) 6,274 8.9 -17.0°
Reaches altitude 10° 03:25:46 10° 300° (WNW) 3,657 7.5 -17.7°
Maximum altitude 03:32:44 88° 30° (NNE) 581 2.3 -18.5°
Enters shadow 03:33:34 48° 118° (ESE) 665 2.3 -18.6°
